CW8504 Weather Reports


time (UTC)temp
C
wind
direction
speed
KPH
gust
KPH
rain 1hr
cm
rain 24hr
cm
rain mn
cm
humidity
%
barometer
mb
20260905144904 7 0 0.0 0.0 0.00 0.00 0.00 68 1020.6
20260905144404 7 0 0.0 0.0 0.00 0.00 0.00 68 1020.6
20260905143903 7 0 0.0 0.0 0.00 0.00 0.00 69 1020.7
20260905142904 7 0 0.0 0.0 0.00 0.00 0.00 70 1020.6
20260905142404 6 0 0.0 0.0 0.00 0.00 0.00 71 1020.6
20260905135904 6 0 0.0 0.0 0.00 0.00 0.00 71 1020.6
20260905135404 6 0 0.0 0.0 0.00 0.00 0.00 71 1020.5
20260905134904 6 0 0.0 0.0 0.00 0.00 0.00 71 1020.5
20260905134404 6 0 0.0 0.0 0.00 0.00 0.00 71 1020.5
20260905133904 6 0 0.0 0.0 0.00 0.00 0.00 71 1020.5
20260905133404 6 0 0.0 0.0 0.00 0.00 0.00 69 1020.4
20260905132904 6 0 0.0 0.0 0.00 0.00 0.00 69 1020.3
20260905131904 6 0 0.0 0.0 0.00 0.00 0.00 70 1020.2
20260905131404 6 0 0.0 0.0 0.00 0.00 0.00 70 1020.1
20260905130404 6 0 0.0 0.0 0.00 0.00 0.00 69 1020.1
20260905125904 6 0 0.0 0.0 0.00 0.00 0.00 68 1020.0
20260905125404 6 0 0.0 0.0 0.00 0.00 0.00 67 1020.0
20260905124404 6 0 0.0 0.0 0.00 0.00 0.00 68 1019.9
20260905123404 7 0 0.0 0.0 0.00 0.00 0.00 67 1019.7
20260905122904 7 0 0.0 0.0 0.00 0.00 0.00 67 1019.7
20260905122404 7 0 0.0 0.0 0.00 0.00 0.00 67 1019.6
20260905121904 7 0 0.0 0.0 0.00 0.00 0.00 67 1019.5
20260905121404 7 0 0.0 0.0 0.00 0.00 0.00 67 1019.5
20260905120904 7 0 0.0 0.0 0.00 0.00 0.00 67 1019.5
20260905120404 7 0 0.0 0.0 0.00 0.00 0.00 67 1019.5
20260905115904 7 0 0.0 0.0 0.00 0.00 0.00 67 1019.4
20260905115404 7 0 0.0 0.0 0.00 0.00 0.00 67 1019.5
20260905114904 7 0 0.0 0.0 0.00 0.00 0.00 66 1019.4
20260905114404 7 0 0.0 0.0 0.00 0.00 0.00 66 1019.4
20260905113904 7 0 0.0 0.0 0.00 0.00 0.00 66 1019.5
20260905112904 7 0 0.0 0.0 0.00 0.00 0.00 64 1019.5
20260905112404 7 0 0.0 0.0 0.00 0.00 0.00 64 1019.5
20260905111904 7 0 0.0 0.0 0.00 0.00 0.00 64 1019.3
20260905111404 7 0 0.0 0.0 0.00 0.00 0.00 64 1019.4
20260905110904 7 0 0.0 0.0 0.00 0.00 0.00 63 1019.3
20260905110404 7 0 0.0 0.0 0.00 0.00 0.00 62 1019.3
20260905105904 8 0 0.0 0.0 0.00 0.00 0.00 62 1019.2
20260905105404 8 0 0.0 0.0 0.00 0.00 0.00 62 1019.2
20260905104904 8 0 0.0 0.0 0.00 0.00 0.00 62 1019.2
20260905104404 8 0 0.0 0.0 0.00 0.00 0.00 61 1019.2
20260905102904 8 0 0.0 0.0 0.00 0.00 0.00 61 1019.1
20260905101404 8 0 0.0 0.0 0.00 0.00 0.00 60 1018.9
20260905100904 8 0 0.0 0.0 0.00 0.00 0.00 61 1018.9
20260905095904 8 0 0.0 0.0 0.00 0.00 0.00 61 1018.7
20260905094904 8 0 0.0 0.0 0.00 0.00 0.00 61 1018.7
20260905094404 8 0 0.0 0.0 0.00 0.00 0.00 61 1018.7
20260905093904 8 0 0.0 0.0 0.00 0.00 0.00 60 1018.7
20260905093404 8 0 0.0 0.0 0.00 0.00 0.00 59 1018.6
20260905092904 8 0 0.0 0.0 0.00 0.00 0.00 58 1018.6
20260905092404 9 0 0.0 0.0 0.00 0.00 0.00 58 1018.7
20260905091904 9 0 0.0 0.0 0.00 0.00 0.00 57 1018.8
20260905091404 9 0 0.0 0.0 0.00 0.00 0.00 56 1018.8
20260905090904 9 0 0.0 0.0 0.00 0.00 0.00 55 1018.7
20260905090404 9 0 0.0 0.0 0.00 0.00 0.00 56 1018.6
20260905085904 10 0 0.0 0.0 0.00 0.00 0.00 56 1018.7
20260905085404 10 0 0.0 0.0 0.00 0.00 0.00 55 1018.7
20260905084904 10 0 0.0 0.0 0.00 0.00 0.00 55 1018.5
20260905084404 10 0 0.0 0.0 0.00 0.00 0.00 52 1018.5
20260905083904 10 0 0.0 0.0 0.00 0.00 0.00 52 1018.5
20260905083404 10 0 0.0 0.0 0.00 0.00 0.00 52 1018.6
20260905082904 10 0 0.0 0.0 0.00 0.00 0.00 52 1018.6
20260905082404 10 0 0.0 0.0 0.00 0.00 0.00 52 1018.6
20260905081904 10 0 0.0 0.0 0.00 0.00 0.00 52 1018.6
20260905081404 10 0 0.0 0.0 0.00 0.00 0.00 52 1018.4
20260905080904 10 0 0.0 0.0 0.00 0.00 0.00 52 1018.4
20260905080404 10 0 0.0 0.0 0.00 0.00 0.00 52 1018.2
20260905075904 10 0 0.0 0.0 0.00 0.00 0.00 52 1018.5
20260905075404 10 0 0.0 0.0 0.00 0.00 0.00 52 1018.3
20260905074404 10 0 0.0 0.0 0.00 0.00 0.00 52 1018.2
20260905073904 10 5 0.0 0.0 0.00 0.00 0.00 51 1018.2
20260905073404 10 5 0.0 0.0 0.00 0.00 0.00 52 1018.0
20260905072404 10 11 0.0 4.8 0.00 0.00 0.00 54 1018.3
20260905071904 9 346 0.0 4.8 0.00 0.00 0.00 57 1018.1
20260905071404 9 310 0.0 0.0 0.00 0.00 0.00 58 1017.9
20260905070904 9 225 0.0 0.0 0.00 0.00 0.00 59 1017.9
20260905070404 9 225 0.0 0.0 0.00 0.00 0.00 59 1018.4
20260905065904 8 225 0.0 0.0 0.00 0.00 0.00 59 1018.7
20260905064904 8 225 0.0 0.0 0.00 0.00 0.00 59 1018.0
20260905064404 8 225 0.0 0.0 0.00 0.00 0.00 58 1017.9
20260905063904 8 225 0.0 0.0 0.00 0.00 0.00 58 1017.7
20260905063404 8 225 0.0 0.0 0.00 0.00 0.00 57 1017.8
20260905062904 8 225 0.0 0.0 0.00 0.00 0.00 57 1017.8
20260905062405 8 225 0.0 0.0 0.00 0.00 0.00 56 1017.8
20260905061904 8 225 0.0 0.0 0.00 0.00 0.00 56 1017.8
20260905061404 8 225 0.0 0.0 0.00 0.00 0.00 56 1017.8
20260905060404 9 225 0.0 0.0 0.00 0.00 0.00 57 1017.8
20260905055904 9 225 0.0 0.0 0.00 0.00 0.00 57 1017.7
20260905055404 9 225 0.0 0.0 0.00 0.00 0.00 57 1017.6
20260905054904 9 225 0.0 0.0 0.00 0.00 0.00 58 1017.7
20260905054404 9 225 0.0 0.0 0.00 0.00 0.00 57 1017.5
20260905053404 10 225 0.0 0.0 0.00 0.00 0.00 56 1017.5
20260905052904 10 225 0.0 0.0 0.00 0.00 0.00 56 1017.4
20260905051904 10 225 0.0 0.0 0.00 0.00 0.00 56 1017.5
20260905050904 10 225 0.0 0.0 0.00 0.00 0.00 55 1017.3
20260905050404 10 225 0.0 0.0 0.00 0.00 0.00 56 1017.5
20260905045904 10 225 0.0 0.0 0.00 0.00 0.00 54 1017.5
20260905045404 10 225 0.0 0.0 0.00 0.00 0.00 55 1017.5
20260905044905 10 225 0.0 0.0 0.00 0.00 0.00 54 1017.5
20260905043904 10 225 0.0 0.0 0.00 0.00 0.00 53 1017.5
20260905043404 10 225 0.0 0.0 0.00 0.00 0.00 51 1017.6
20260905042904 11 225 0.0 0.0 0.00 0.00 0.00 50 1017.6
20260905042404 11 225 0.0 0.0 0.00 0.00 0.00 51 1017.6
20260905041905 11 225 0.0 0.0 0.00 0.00 0.00 52 1017.5
20260905041404 11 225 0.0 0.0 0.00 0.00 0.00 52 1017.6
20260905040904 11 225 0.0 0.0 0.00 0.00 0.00 49 1017.6
20260905040404 12 225 0.0 0.0 0.00 0.00 0.00 48 1017.6
20260905035904 12 225 0.0 0.0 0.00 0.00 0.00 49 1017.5
20260905035404 12 225 0.0 0.0 0.00 0.00 0.00 49 1017.6
20260905034904 12 225 0.0 0.0 0.00 0.00 0.00 47 1017.5
20260905034404 12 225 0.0 0.0 0.00 0.00 0.00 46 1017.5
20260905033904 13 225 0.0 0.0 0.00 0.00 0.00 46 1017.6
20260905033404 13 225 0.0 0.0 0.00 0.00 0.00 45 1017.5
20260905032904 13 225 0.0 0.0 0.00 0.00 0.00 45 1017.4
20260905031904 14 225 0.0 0.0 0.00 0.00 0.00 42 1017.3
20260905030405 15 225 0.0 0.0 0.00 0.00 0.00 42 1017.2
20260905025905 15 225 0.0 0.0 0.00 0.00 0.00 42 1017.1
20260905025404 15 225 0.0 0.0 0.00 0.00 0.00 41 1017.1
20260905023904 16 225 0.0 0.0 0.00 0.00 0.00 39 1016.9
20260905023404 17 225 0.0 0.0 0.00 0.00 0.00 39 1016.8
20260905022905 17 225 0.0 0.0 0.00 0.00 0.00 29 1016.7
20260905022404 17 225 0.0 0.0 0.00 0.00 0.00 29 1016.6
20260905021904 18 225 0.0 0.0 0.00 0.00 0.00 28 1016.5
20260905021404 18 225 0.0 0.0 0.00 0.00 0.00 28 1016.5
20260905020904 19 225 0.0 0.0 0.00 0.00 0.00 29 1016.4
20260905020404 20 225 0.0 0.0 0.00 0.00 0.00 28 1016.3
20260905015904 20 225 0.0 0.0 0.00 0.00 0.00 27 1016.2
20260905015404 20 225 0.0 0.0 0.00 0.00 0.00 27 1016.2
20260905014904 21 225 0.0 0.0 0.00 0.00 0.00 24 1016.2
20260905013905 22 225 0.0 0.0 0.00 0.00 0.00 22 1016.0
20260905013404 22 225 0.0 0.0 0.00 0.00 0.00 21 1016.0
20260905012904 23 225 0.0 0.0 0.00 0.00 0.00 20 1015.8
20260905012404 23 225 0.0 0.0 0.00 0.00 0.00 20 1015.8
20260905011904 23 225 0.0 0.0 0.00 0.00 0.00 18 1015.7
20260905011404 24 225 0.0 0.0 0.00 0.00 0.00 13 1015.6
20260905010904 24 225 0.0 0.0 0.00 0.00 0.00 11 1015.7
20260905005904 25 225 0.0 4.8 0.00 0.00 0.00 9 1015.6
20260905005404 25 221 1.6 4.8 0.00 0.00 0.00 9 1015.6
20260905004903 25 181 0.0 4.8 0.00 0.00 0.00 8 1015.6
20260905004404 25 136 1.6 4.8 0.00 0.00 0.00 7 1015.5
20260905003904 25 204 0.0 9.7 0.00 0.00 0.00 7 1015.6
20260905003404 26 209 1.6 11.3 0.00 0.00 0.00 7 1015.5
20260905002904 26 223 4.8 29.0 0.00 0.00 0.00 7 1015.5
20260905002404 26 226 8.0 19.3 0.00 0.00 0.00 6 1015.4
20260905001904 26 230 3.2 27.4 0.00 0.00 0.00 6 1015.3
20260905001404 26 239 4.8 25.7 0.00 0.00 0.00 6 1015.3
20260905000904 26 245 8.0 19.3 0.00 0.00 0.00 6 1015.3
20260905000404 26 234 4.8 19.3 0.00 0.00 0.00 6 1015.2
20260904235903 27 219 8.0 19.3 0.00 0.00 0.00 6 1015.2
20260904235404 27 170 4.8 22.5 0.00 0.00 0.00 6 1015.2
20260904234904 27 225 4.8 19.3 0.00 0.00 0.00 6 1015.2
20260904234404 27 127 4.8 14.5 0.00 0.00 0.00 5 1015.1
20260904233904 27 133 3.2 11.3 0.00 0.00 0.00 6 1015.4
20260904233404 27 151 1.6 11.3 0.00 0.00 0.00 5 1015.3
20260904232904 27 215 8.0 14.5 0.00 0.00 0.00 5 1015.4
20260904232404 27 152 4.8 20.9 0.00 0.00 0.00 5 1015.3
20260904231905 27 153 3.2 9.7 0.00 0.00 0.00 6 1015.3
20260904231404 27 233 1.6 4.8 0.00 0.00 0.00 5 1015.2
20260904230904 27 232 3.2 19.3 0.00 0.00 0.00 7 1015.2
20260904225404 27 227 8.0 20.9 0.00 0.00 0.00 7 1015.3
20260904224904 27 227 3.2 19.3 0.00 0.00 0.00 5 1015.2
20260904224404 27 237 9.7 19.3 0.00 0.00 0.00 5 1015.2
20260904223904 27 242 8.0 19.3 0.00 0.00 0.00 5 1015.2
20260904223404 27 229 8.0 14.5 0.00 0.00 0.00 5 1015.2
20260904222404 27 233 4.8 24.1 0.00 0.00 0.00 6 1015.2
20260904221904 27 277 12.9 19.3 0.00 0.00 0.00 4 1015.3
20260904221404 27 223 8.0 20.9 0.00 0.00 0.00 5 1015.2
20260904220904 26 252 4.8 14.5 0.00 0.00 0.00 7 1015.3
20260904220404 26 224 6.4 19.3 0.00 0.00 0.00 5 1015.3
20260904215904 26 235 4.8 22.5 0.00 0.00 0.00 6 1015.3
20260904215404 26 221 3.2 16.1 0.00 0.00 0.00 6 1015.3
20260904214904 26 230 12.9 20.9 0.00 0.00 0.00 6 1015.5
20260904214404 26 228 8.0 16.1 0.00 0.00 0.00 6 1015.4
20260904213904 26 229 4.8 14.5 0.00 0.00 0.00 6 1015.4
20260904211904 26 225 9.7 19.3 0.00 0.00 0.00 7 1015.4
20260904211404 26 249 4.8 12.9 0.00 0.00 0.00 6 1015.5
20260904210904 26 232 4.8 11.3 0.00 0.00 0.00 6 1015.5
20260904205904 26 231 8.0 19.3 0.00 0.00 0.00 7 1015.6
20260904205404 26 224 8.0 24.1 0.00 0.00 0.00 8 1015.7
20260904204904 26 233 9.7 20.9 0.00 0.00 0.00 7 1015.6
20260904204404 26 225 4.8 19.3 0.00 0.00 0.00 7 1015.7
20260904203904 26 229 11.3 22.5 0.00 0.00 0.00 7 1015.6
20260904203404 26 233 3.2 14.5 0.00 0.00 0.00 7 1015.6
20260904202904 26 231 8.0 16.1 0.00 0.00 0.00 8 1015.7
20260904202404 26 236 4.8 14.5 0.00 0.00 0.00 7 1015.7
20260904201904 26 230 9.7 19.3 0.00 0.00 0.00 6 1015.8
20260904201404 26 218 9.7 20.9 0.00 0.00 0.00 7 1015.7
20260904195904 26 236 12.9 22.5 0.00 0.00 0.00 6 1016.0
20260904195404 26 217 8.0 16.1 0.00 0.00 0.00 6 1015.9
20260904194404 25 223 4.8 16.1 0.00 0.00 0.00 6 1015.9
20260904193904 25 224 1.6 14.5 0.00 0.00 0.00 6 1016.0
20260904193404 25 238 9.7 20.9 0.00 0.00 0.00 7 1016.0
20260904192904 25 350 3.2 9.7 0.00 0.00 0.00 8 1015.9
20260904192404 25 265 0.0 8.0 0.00 0.00 0.00 10 1015.9
20260904191904 25 225 4.8 16.1 0.00 0.00 0.00 9 1016.1
20260904191404 25 176 1.6 14.5 0.00 0.00 0.00 7 1016.2
20260904190904 25 229 0.0 24.1 0.00 0.00 0.00 7 1016.1
20260904190404 25 208 4.8 16.1 0.00 0.00 0.00 8 1016.3
20260904185904 25 224 9.7 20.9 0.00 0.00 0.00 7 1016.2
20260904185404 25 224 3.2 14.5 0.00 0.00 0.00 7 1016.3
20260904184904 25 176 4.8 14.5 0.00 0.00 0.00 7 1016.4
20260904184404 25 141 3.2 12.9 0.00 0.00 0.00 10 1016.4
20260904183904 25 228 4.8 14.5 0.00 0.00 0.00 8 1016.3
20260904182904 25 222 3.2 12.9 0.00 0.00 0.00 8 1016.4
20260904181904 24 218 1.6 19.3 0.00 0.00 0.00 9 1016.5
20260904181405 24 231 8.0 19.3 0.00 0.00 0.00 8 1016.5
20260904180904 24 198 4.8 9.7 0.00 0.00 0.00 9 1016.4
20260904180404 24 173 1.6 19.3 0.00 0.00 0.00 9 1016.4
20260904175904 23 221 3.2 19.3 0.00 0.00 0.00 11 1016.5
20260904174904 23 238 4.8 9.7 0.00 0.00 0.00 9 1016.5
20260904174404 23 236 1.6 11.3 0.00 0.00 0.00 9 1016.5
20260904173904 23 222 4.8 12.9 0.00 0.00 0.00 11 1016.6
20260904172404 22 238 3.2 19.3 0.00 0.00 0.00 11 1016.5
20260904171904 22 225 1.6 11.3 0.00 0.00 0.00 14 1016.5
20260904171404 22 147 1.6 4.8 0.00 0.00 0.00 16 1016.5
20260904170904 21 217 3.2 9.7 0.00 0.00 0.00 14 1016.5
20260904170404 20 175 1.6 8.0 0.00 0.00 0.00 21 1016.5
20260904165904 20 212 1.6 8.0 0.00 0.00 0.00 20 1016.5
20260904165404 19 6 0.0 0.0 0.00 0.00 0.00 23 1016.5
20260904164904 18 12 0.0 0.0 0.00 0.00 0.00 28 1016.5
20260904163904 18 15 0.0 0.0 0.00 0.00 0.00 30 1016.6
20260904163404 17 15 0.0 0.0 0.00 0.00 0.00 32 1016.6
20260904162904 16 18 0.0 0.0 0.00 0.00 0.00 35 1016.7
20260904162404 16 24 0.0 3.2 0.00 0.00 0.00 33 1016.7
20260904161904 15 34 0.0 3.2 0.00 0.00 0.00 35 1016.8
20260904161404 15 36 0.0 0.0 0.00 0.00 0.00 36 1016.8
20260904160904 14 36 0.0 0.0 0.00 0.00 0.00 38 1016.8
20260904160404 13 39 0.0 0.0 0.00 0.00 0.00 40 1016.9
20260904155904 13 39 0.0 0.0 0.00 0.00 0.00 42 1016.9
20260904154904 12 39 0.0 0.0 0.00 0.00 0.00 46 1017.0
20260904154404 11 39 0.0 0.0 0.00 0.00 0.00 48 1017.1
20260904153904 11 39 0.0 0.0 0.00 0.00 0.00 50 1017.1
20260904153404 10 39 0.0 0.0 0.00 0.00 0.00 54 1017.1
20260904152904 9 39 0.0 0.0 0.00 0.00 0.00 57 1017.2
20260904152404 8 39 0.0 0.0 0.00 0.00 0.00 60 1017.2
20260904150904 7 39 0.0 0.0 0.00 0.00 0.00 67 1017.3
20260904150404 6 39 0.0 0.0 0.00 0.00 0.00 68 1017.4
20260904145904 6 39 1.6 4.8 0.00 0.00 0.00 69 1017.5
20260904145404 5 39 0.0 0.0 0.00 0.00 0.00 70 1017.5